Location: Pardubice
(50.0330°N, 15.7830°E)
Time: 22:27:59
(UTC+02:00)

Tiangong - Visible Passes

Search period start: 19 September 2024 00:00
Search period end: 29 September 2024 00:00
Orbit: 373 x 377 km, 41.5° (Epoch: 18 September)

Date Brightness Start Highest point End Pass type
(mag) Time Alt. Az. Time Alt. Az. Time Alt. Az.
20 Sep 0.1 20:07:05 10° SSW 20:08:32 13° SSE 20:09:05 12° SSE visible
21 Sep 0.0 20:39:42 10° SW 20:41:13 16° S 20:41:13 16° S visible
22 Sep 0.0 19:37:15 10° SSW 19:39:06 15° S 19:40:57 10° SE visible
22 Sep 0.7 21:12:58 10° SW 21:13:12 11° SW 21:13:12 11° SW visible
23 Sep -0.2 20:10:06 10° SW 20:12:15 17° S 20:13:06 16° SSE visible
24 Sep 0.2 20:43:28 10° SW 20:44:54 14° SSW 20:44:54 14° SSW visible
25 Sep 0.0 19:40:20 10° SW 19:42:24 17° S 19:44:30 10° SE visible
26 Sep 0.3 20:13:51 10° SW 20:15:19 13° SSW 20:16:19 11° S visible
28 Sep 0.7 19:44:34 10° SSW 19:45:00 10° SSW 19:45:26 10° SSW visible
